Regional Weather Roundup
Issued by NWS New Orleans/Baton Rouge, LA

Home | Current Version | Previous Version | Text Only | Print | Product List | Glossary On
Versions: 1 2 3 4 5 6 7 8 9 10 11 12 13 14 15 16 17 18 19 20 21 22 23 24 25 26 27 28 29 30 31 32 33 34 35 36 37 38 39 40 41 42 43 44 45 46 47 48 49 50
000
ASUS44 KLIX 020111
RWRLIX
NEW ORLEANS REGIONAL WEATHER ROUNDUP
NATIONAL WEATHER SERVICE NEW ORLEANS LA
800 PM CDT MON JUN 01 2015

NOTE: "FAIR" INDICATES FEW OR NO CLOUDS BELOW 12,000 FEET WITH NO
      SIGNIFICANT WEATHER AND/OR OBSTRUCTIONS TO VISIBILITY.
      SKY/WX - SKY CONDITION AND SIGNIFICANT WEATHER.
      TMP - AIR TEMPERATURE.     DP    - DEWPOINT TEMPERATURE.
      RH  - RELATIVE HUMIDITY.   PRES  - PRESSURE.
      HI  - HEAT INDEX.          WCI   - WIND CHILL INDEX.

*  THESE STATIONS ARE NOT NWS OR FAA STATIONS AND ARE NOT UNDER
   NWS QUALITY CONTROL.

LAZ038-040-048-061>063-065>067-069-020200-
SOUTHEAST LOUISIANA

CITY           SKY/WX    TMP DP  RH WIND       PRES   REMARKS
N.O. AUDUBON     N/A     79  70  73 MISG        N/A
N.O. INTL ARPT LGT RAIN  76  68  76 SE9       29.99R
N.O. LAKEFRONT MOCLDY    82  69  64 SW14      29.99R
SLIDELL        MOCLDY    82  71  69 CALM      29.98R
BATON ROUGE    PTCLDY    81  66  60 CALM      29.98S
BOOTHVILLE     MOCLDY    81  73  76 CALM      30.00R
BELLE CHASSE   LGT RAIN  72  70  93 S6        29.99S FOG
BOGALUSA*        N/A     81  70  70 CALM      30.00R
GALLIANO*      MOCLDY    82  70  66 W5        29.99S
NEW ROADS*       N/A    N/A N/A N/A N5        29.99R
GONZALES*      MOCLDY    80  71  74 CALM      29.97S
HAMMOND*       PTCLDY    81  70  69 CALM      30.00R
HOUMA*         MOCLDY    80  71  74 SW5       29.99R
PORT FOURCHON* PTCLDY    82  70  65 W6        30.01R

$$

MSZ070-080>082-020200-
SOUTHERN MISSISSIPPI

CITY           SKY/WX    TMP DP  RH WIND       PRES   REMARKS
MCCOMB         CLOUDY    80  70  71 CALM      30.00R
GULFPORT       MOCLDY    78  70  76 NE6       29.98R
BILOXI         MOCLDY    79  70  73 E2        29.97F
PASCAGOULA     CLOUDY    72  71  97 CALM      29.99F
STENNIS ARPT*  CLEAR     75  68  78 MISG      29.98R

$$

COASTAL OBSERVATIONS
LAKE AND NEARSHORE STATIONS

STATION/POSITION TIME  TEMP    WIND        PRES    WAVE
                       AIR SEA DIR/SP/G            HT/PER
                 (UTC) (F)     (DEG/KT/KT) (MB)    (FT/S)
PASCAGOULA       0000   80     150/  3/  5 1015.1
WAVELAND YACHT   0000   82 85  250/  3/  5 1015.0
GRAND ISLE       0000   82 87  300/  6/ 11 1015.4
SOUTHWEST PASS   0000   83 76  310/  6/  8 1016.1
NEW CANAL        0000   83 83  220/  5/  8 1014.4
SHELL BEACH      0000   84 86  330/  1/  1 1014.5

OFFSHORE STATIONS

STATION/POSITION TIME  TEMP    WIND        PRES    WAVE
                       AIR SEA DIR/SP/G            HT/PER
                 (UTC) (F)     (DEG/KT/KT) (MB)    (FT/S)
64 S DAUPHIN ISL 0050   80 84  210/  2/  4 1016.1    1

$$



USA.gov is the U.S. government's official web portal to all federal, state and local government web resources and services.